GFSWCAN_925_spd_120.txt.gz
Wind_Speed
26 22 20 17 14 12 9 9 8 6 4 5 6 9 12 13 12 4 4 9 4 2 3 3 3 4 2 2 3 3 3 1 2 2 2 3 3 4 1 4 5 6 6 4 4 2 6 6 3 3 3 4 4 6
29 25 22 19 16 14 11 9 9 7 6 4 4 6 8 11 13 8 2 6 5 2 2 1 1 1 1 2 4 2 3 3 4 3 1 2 2 1 2 3 0 3 5 5 9 6 3 2 4 3 2 4 6 6
32 27 25 21 18 15 12 10 9 8 7 6 4 4 6 9 11 13 5 8 1 2 2 2 0 1 1 1 3 3 2 2 2 2 3 2 2 4 4 5 2 4 4 3 1 1 3 10 6 5 5 5 10 12
34 29 27 23 18 15 13 11 10 8 7 6 5 4 6 9 11 11 4 7 3 2 1 1 1 1 2 1 1 3 2 4 4 2 2 2 2 3 3 1 3 4 5 4 5 6 8 2 1 6 12 13 13 9
36 31 28 26 22 18 14 12 11 9 7 6 4 5 5 6 9 8 6 6 7 2 2 2 0 2 4 3 2 4 4 2 2 1 1 3 1 1 1 1 4 5 5 4 4 3 4 9 7 9 8 13 15 14
37 32 28 27 25 22 16 13 12 10 7 5 3 4 5 5 6 3 2 3 6 5 2 2 1 3 6 8 8 7 5 2 1 3 2 2 2 2 2 3 5 4 2 3 3 4 7 12 9 2 10 14 13 10
36 34 30 29 28 24 19 15 13 11 9 7 4 3 5 5 4 0 2 1 5 5 2 3 3 1 1 2 2 2 4 2 1 1 1 1 2 2 2 3 3 2 2 4 4 5 6 1 7 14 12 16 18 16
37 35 32 30 28 25 21 17 14 11 8 6 7 4 5 4 2 1 1 2 2 2 3 1 3 2 1 1 1 2 2 2 2 2 1 1 2 1 4 6 4 5 7 0 5 4 7 11 11 8 13 12 10 10
37 33 32 31 29 29 24 18 14 11 8 6 7 5 2 2 1 1 0 1 0 0 2 2 2 3 1 1 1 2 1 1 0 1 2 2 2 5 7 4 2 3 3 7 8 6 5 6 9 9 8 8 7 10
33 33 31 33 32 28 23 18 15 12 11 11 8 3 2 2 3 1 1 2 3 2 2 2 1 3 2 0 1 2 1 1 1 2 2 2 3 6 6 6 6 6 4 4 5 8 5 6 8 11 8 8 7 9
32 37 40 36 30 25 22 21 18 16 16 7 4 2 4 5 1 2 1 1 1 2 2 1 3 1 1 2 2 1 3 2 2 3 1 2 3 3 3 2 1 2 2 5 6 8 8 8 9 9 11 9 12 14
38 34 31 30 25 25 21 20 23 20 9 7 8 5 3 2 1 2 1 2 3 2 2 2 2 2 0 0 2 1 2 1 3 1 2 3 3 3 2 0 0 2 5 6 8 9 12 12 14 11 11 13 17 22
32 30 28 26 22 20 20 20 22 13 15 8 3 2 2 1 2 6 5 3 2 2 2 2 1 1 1 1 2 2 2 3 1 1 4 4 3 2 3 2 4 5 7 8 9 11 13 15 21 11 14 24 24 23
24 23 22 21 19 16 17 19 17 17 4 2 3 3 3 3 4 4 4 3 3 2 2 2 2 1 0 2 2 3 1 2 1 3 5 3 2 3 3 3 3 6 7 6 10 17 17 17 19 25 25 26 24 22
19 19 18 17 18 18 19 19 16 7 3 3 3 3 4 3 2 2 2 0 2 1 2 2 2 1 1 2 2 2 3 3 5 4 3 3 2 3 5 5 7 7 7 7 15 13 16 19 20 22 25 27 30 28
18 16 12 16 16 17 18 17 9 3 3 2 1 0 2 2 3 1 2 2 2 2 1 2 2 3 3 3 5 7 4 6 4 3 3 3 4 6 7 7 8 14 16 17 17 18 19 19 20 25 29 27 32 27
14 5 17 18 17 19 19 6 4 3 3 3 2 2 2 1 2 2 2 2 5 2 2 2 3 8 2 3 3 3 5 4 3 3 3 6 8 7 7 9 11 13 13 17 19 19 22 26 26 23 16 30 26 29
3 16 21 22 22 16 4 3 3 3 3 2 2 2 2 2 2 2 2 3 3 2 2 4 3 3 5 5 4 3 3 3 3 4 4 5 6 18 19 16 22 20 19 21 21 24 23 21 16 15 25 28 24 27
17 18 23 23 16 5 3 2 1 3 3 2 2 2 2 1 3 4 2 4 3 2 2 1 3 4 5 3 2 3 3 3 6 6 8 17 17 19 21 21 24 22 21 21 20 20 27 28 25 28 29 24 18 23
18 17 21 17 7 3 3 1 2 3 2 2 1 2 2 2 2 1 2 3 3 2 3 4 4 5 4 5 5 7 8 8 6 9 12 11 18 19 17 17 17 24 23 23 24 25 25 21 23 27 23 21 18 20
17 14 15 10 2 5 3 2 2 3 2 2 2 2 3 1 2 3 2 3 2 3 3 5 8 11 19 22 24 22 18 15 10 10 13 13 18 18 20 22 23 21 18 18 13 19 22 20 27 28 24 24 24 25
10 16 7 4 2 1 2 6 3 1 2 2 1 2 2 3 4 4 2 2 3 6 6 10 12 11 12 15 19 25 26 25 25 22 26 24 11 9 10 19 16 10 18 21 21 18 22 26 31 24 24 28 26 25
19 13 5 4 3 4 4 7 4 2 3 3 2 2 3 3 3 1 2 3 4 6 12 13 22 29 20 30 26 25 27 23 14 21 23 22 24 24 20 22 24 18 11 22 24 21 22 32 31 27 25 24 23 25
15 9 5 6 4 5 2 4 2 3 3 3 4 3 4 4 1 1 4 4 6 5 9 13 16 10 12 13 9 13 28 26 21 23 25 19 10 19 23 24 25 26 26 25 22 25 25 29 28 23 21 20 21 20
8 7 6 6 3 5 6 5 3 4 5 6 4 4 4 2 3 3 5 5 7 10 10 9 8 9 11 12 12 21 31 23 15 12 26 23 25 22 21 24 26 28 29 19 19 22 28 28 24 21 20 19 20 23
6 6 10 9 5 7 7 7 10 9 4 6 7 3 2 3 2 6 4 8 8 8 8 9 10 10 10 12 12 12 26 31 25 12 30 28 22 16 11 11 12 20 27 23 23 23 27 32 27 22 21 22 24 26
7 5 3 1 4 4 3 2 1 3 6 7 4 5 4 5 7 6 7 4 6 15 25 25 23 15 12 18 30 32 33 31 27 30 35 31 30 30 29 19 15 32 35 28 26 27 27 31 27 24 24 23 22 25
3 5 9 6 2 2 5 4 6 8 5 4 4 4 7 8 9 10 8 18 27 29 29 32 32 30 30 33 34 34 34 33 35 34 32 33 39 39 36 35 40 42 43 40 33 31 30 30 26 25 22 22 24 28
3 3 4 5 3 3 5 7 6 5 4 5 5 6 8 9 13 11 26 29 30 25 20 23 34 34 30 31 32 32 30 27 13 20 22 15 15 29 29 29 33 38 39 31 33 32 32 30 27 26 26 27 28 29
4 4 4 4 7 7 6 8 5 5 2 5 3 4 9 13 29 31 30 30 23 19 30 31 32 28 18 17 17 28 30 30 27 18 14 16 21 34 30 30 31 35 32 31 33 33 34 24 24 25 25 25 25 22
4 3 3 4 6 5 8 3 2 3 2 4 6 8 16 16 26 32 32 36 33 33 27 20 26 28 23 19 13 14 15 31 29 35 37 36 36 34 34 34 32 30 31 30 30 30 27 24 23 23 22 21 24 20
3 6 5 3 5 4 1 3 3 4 4 3 9 5 11 5 10 8 27 24 21 12 25 27 17 20 30 28 30 31 33 37 39 33 32 32 30 34 35 33 32 29 28 27 29 29 27 25 23 19 19 22 23 24
2 1 1 2 3 4 3 3 2 4 2 4 9 11 11 6 7 4 10 16 27 24 21 25 26 26 27 28 29 32 34 34 37 37 35 34 35 35 33 31 28 26 26 28 28 26 26 27 24 24 25 25 24 23

GFSWCAN_925_spd_123.txt.gz
Wind_Speed
29 29 26 22 19 17 14 12 11 9 6 4 4 6 9 11 12 4 3 7 3 2 3 3 0 3 2 2 3 3 3 1 2 2 3 3 3 4 2 4 5 6 7 4 4 2 5 6 3 1 2 4 4 5
31 31 28 24 21 19 17 13 11 10 7 5 4 4 6 9 11 7 2 5 3 2 1 0 1 0 0 2 4 0 2 3 4 3 1 2 2 1 4 2 1 3 5 4 8 5 2 2 2 3 2 5 7 5
33 33 30 26 24 20 19 14 12 11 8 6 4 3 4 7 10 9 2 7 2 2 2 2 1 0 1 1 1 3 2 2 2 3 4 2 3 3 3 5 2 4 3 2 1 2 4 8 3 3 3 6 7 9
35 34 33 29 26 23 19 16 13 12 10 7 5 3 2 6 9 9 3 5 2 2 1 2 1 1 1 2 2 3 4 3 4 1 2 3 3 3 3 2 3 3 4 3 4 4 5 2 1 5 6 5 8 8
38 35 36 32 29 25 21 17 14 13 11 8 6 5 2 4 6 7 5 6 8 2 2 2 1 3 5 1 2 2 5 3 2 1 1 3 2 3 1 0 4 5 4 4 3 3 1 7 6 8 8 10 11 8
41 38 36 35 30 29 24 19 16 15 11 9 7 5 4 4 5 2 3 2 6 5 3 1 2 2 5 7 10 8 4 2 2 3 2 2 2 2 3 3 2 3 2 5 3 3 6 9 7 3 5 9 11 10
42 40 39 37 32 32 28 22 17 16 13 10 7 8 5 4 4 0 3 1 6 5 2 2 2 1 1 2 3 2 3 2 2 2 1 1 1 2 2 3 2 5 5 3 2 1 1 3 4 10 9 12 14 14
45 41 39 37 35 32 31 26 21 17 14 11 10 7 6 3 3 1 0 1 1 3 3 1 3 2 1 1 1 3 1 2 3 2 1 2 1 0 4 5 4 2 3 5 3 4 4 7 9 8 13 11 8 9
43 42 40 39 36 34 33 27 23 18 15 12 13 8 5 3 2 2 2 1 0 1 3 2 3 3 1 1 1 1 1 1 1 0 1 2 2 5 5 5 3 2 2 2 4 5 5 5 8 8 6 7 6 10
42 41 41 41 39 36 36 30 25 22 19 17 10 4 1 3 4 1 1 2 3 2 2 2 1 3 2 0 0 2 1 1 1 1 2 2 4 4 6 5 2 1 3 3 1 4 3 5 6 8 7 6 7 8
45 42 42 42 39 38 37 32 28 26 24 9 4 2 5 7 3 3 1 1 1 2 2 1 2 2 2 3 2 1 2 1 1 3 2 2 3 3 1 3 3 4 2 1 4 5 7 7 7 7 9 9 13 17
44 39 41 41 37 36 38 34 34 26 16 13 13 9 5 2 2 3 2 1 3 3 1 2 2 3 1 0 3 1 2 1 4 0 2 3 3 3 1 4 4 2 2 5 5 9 13 13 14 12 13 16 19 24
39 35 36 38 37 38 37 38 36 20 25 15 4 3 3 1 2 6 7 4 3 3 3 2 2 2 1 1 2 2 3 3 1 2 3 4 2 2 0 3 3 3 3 5 7 11 15 17 22 17 17 24 27 25
36 37 37 36 38 36 34 40 31 30 8 2 5 5 5 4 4 4 4 4 3 3 3 2 2 2 1 2 2 3 1 2 3 3 5 3 3 3 3 3 2 6 7 8 12 16 17 19 19 23 26 26 25 23
40 35 33 33 30 32 34 33 31 14 4 3 3 4 4 2 1 2 2 2 1 3 3 2 2 1 1 2 2 2 3 3 4 4 3 3 5 4 4 4 6 7 7 6 14 14 17 22 21 22 21 21 26 29
32 30 23 26 25 25 29 26 15 4 3 3 2 3 1 2 1 2 1 1 3 3 2 2 2 2 2 1 4 5 3 5 4 3 3 3 4 5 6 7 9 13 15 16 18 20 21 19 19 24 28 26 28 28
17 8 21 21 18 23 20 8 4 3 3 2 0 2 2 2 2 2 3 3 7 3 2 2 2 6 2 2 3 3 5 3 3 3 3 5 5 6 7 10 14 15 14 16 19 19 21 25 28 22 15 29 27 28
11 22 23 23 24 19 10 6 4 3 2 1 3 2 2 2 3 2 2 3 3 2 2 3 3 2 4 5 4 3 3 3 3 4 5 6 8 13 13 12 18 16 18 20 23 26 24 23 17 16 22 26 26 26
25 26 24 25 17 6 3 2 2 3 1 1 2 1 1 1 1 3 3 5 3 3 3 2 1 3 4 3 3 3 4 4 4 6 7 11 12 16 20 21 23 22 22 21 21 21 24 27 23 26 28 25 21 26
23 23 23 18 4 4 3 2 2 3 2 2 2 1 1 1 2 2 3 2 3 2 2 3 5 4 5 6 6 8 9 8 5 8 10 9 16 16 19 19 17 22 22 23 23 25 23 20 22 25 23 22 19 24
21 16 16 7 4 6 3 2 2 2 3 2 2 2 0 1 1 1 1 3 2 3 3 5 6 8 13 17 20 19 16 12 8 8 11 12 19 18 19 21 23 21 17 17 15 20 22 19 26 26 23 25 26 25
9 14 6 3 4 3 3 1 3 2 2 2 2 1 1 1 2 3 2 2 4 4 4 4 7 9 10 12 17 21 21 21 20 20 25 24 11 11 12 20 17 12 17 20 21 18 21 24 27 25 22 27 27 26
15 8 4 3 3 2 3 3 2 3 2 1 2 2 2 2 2 1 1 3 4 6 9 10 17 23 15 25 22 23 26 25 16 20 23 23 24 24 23 23 21 18 12 23 24 22 22 27 28 27 26 24 22 25
11 5 4 4 3 4 1 2 2 2 2 3 4 3 4 3 2 1 4 3 4 3 4 10 11 8 9 12 7 13 26 25 19 21 26 21 8 19 25 22 23 24 24 27 27 23 25 26 28 27 25 21 20 21
6 6 5 5 2 4 5 4 4 4 4 5 4 4 3 2 3 4 4 4 3 4 7 6 6 8 10 11 9 21 33 25 14 10 29 26 22 23 21 23 25 29 28 26 25 23 26 25 26 25 24 18 19 23
7 6 10 8 3 7 6 7 8 7 4 6 7 1 1 3 2 6 4 4 4 5 5 7 8 9 9 13 12 11 25 30 22 13 30 31 24 18 12 13 13 23 29 29 25 23 24 26 28 27 24 21 21 25
7 5 4 1 4 4 3 2 2 4 6 7 4 5 4 4 7 5 4 3 4 14 24 25 20 13 11 19 27 32 33 32 29 31 36 34 34 33 30 21 17 35 34 33 29 28 26 27 28 27 24 23 20 23
2 3 8 7 2 1 5 4 6 7 5 4 5 5 8 10 7 5 5 14 22 29 29 33 31 31 28 30 32 32 34 33 34 34 31 34 38 39 34 34 38 43 39 37 32 31 31 30 29 28 26 24 22 25
3 3 4 4 2 2 5 6 6 4 4 6 7 5 6 5 4 3 18 28 28 22 18 20 31 25 27 28 29 30 28 24 11 16 20 16 15 24 29 30 32 32 32 34 32 28 30 32 32 28 28 26 26 26
4 3 3 4 6 7 5 7 5 4 3 4 3 3 5 6 23 31 28 26 21 18 26 28 26 20 17 17 18 26 26 27 25 18 13 15 18 32 28 27 27 30 30 28 29 29 31 28 28 24 27 26 25 24
4 2 4 3 4 6 7 2 2 2 1 3 3 5 12 10 20 35 29 34 30 28 25 19 21 23 20 19 12 10 12 22 21 27 33 35 36 34 33 33 30 27 25 25 27 28 27 23 23 24 22 22 24 19
3 6 5 6 5 3 1 4 3 4 3 2 7 1 3 2 5 7 19 23 19 12 22 23 15 19 30 29 28 27 28 31 34 31 29 29 30 31 31 32 30 27 24 24 28 29 26 24 22 22 20 23 24 24
2 2 2 2 3 4 2 3 2 4 2 3 4 6 6 6 7 4 10 13 21 24 25 31 34 32 31 29 29 25 23 27 31 29 29 28 28 28 27 26 27 27 27 28 28 26 23 23 24 25 25 25 24 24

GFSWCAN_925_spd_126.txt.gz
Wind_Speed
30 27 24 28 25 22 19 17 15 12 9 6 4 3 5 7 9 3 2 5 1 0 0 2 1 2 2 2 3 4 3 2 2 4 3 3 3 3 2 2 4 6 7 4 3 3 4 4 5 2 3 3 8 10
34 30 25 28 29 25 22 18 16 13 11 8 6 3 3 5 7 4 0 3 1 1 1 2 1 1 2 1 2 3 1 2 2 2 2 2 2 3 3 2 2 3 3 3 6 2 2 1 5 2 2 7 7 8
35 33 29 28 30 26 24 20 18 15 13 10 8 5 2 3 6 5 0 3 2 2 1 1 1 1 1 1 2 2 1 1 2 1 2 1 4 3 4 5 3 5 4 3 2 5 6 3 5 1 4 5 8 9
38 36 33 29 32 29 26 22 19 16 15 12 9 7 4 1 4 5 1 2 2 2 1 2 1 1 2 3 2 2 3 4 4 1 1 2 2 2 2 2 3 0 9 5 5 4 2 2 3 5 6 7 8 8
42 40 35 34 33 31 27 25 22 18 16 14 12 10 6 3 1 3 4 4 5 1 0 0 0 3 6 2 2 2 3 3 2 2 2 3 1 3 2 1 4 6 4 4 3 4 1 0 3 3 6 6 9 10
47 43 38 37 35 33 30 28 24 20 18 16 14 11 9 5 3 1 0 3 3 2 2 1 1 2 5 6 7 5 3 1 0 2 2 2 0 2 3 3 2 5 4 2 1 2 2 6 5 5 8 9 9 9
49 47 42 40 37 35 34 30 27 21 19 16 13 12 9 6 5 3 1 2 2 1 1 1 0 1 1 2 2 2 3 1 1 0 2 1 2 2 2 4 3 5 3 2 1 2 2 1 2 7 7 10 10 11
52 50 47 43 40 36 35 31 29 23 21 17 14 12 10 6 3 3 2 2 1 3 1 2 1 1 1 0 1 2 1 0 1 0 1 2 1 1 4 4 5 2 2 7 3 1 3 1 3 5 8 7 9 9
54 53 49 46 42 37 36 32 32 27 22 18 16 13 8 3 3 3 3 2 3 1 2 1 3 2 1 1 1 1 1 1 1 2 2 2 2 6 5 6 7 6 3 6 3 4 4 6 7 8 8 9 10 12
56 55 51 47 42 39 38 33 36 29 24 22 15 5 2 4 8 6 2 0 1 1 1 2 1 3 2 2 2 1 1 1 2 0 0 3 4 6 6 4 4 4 5 4 4 4 4 5 7 9 9 11 10 11
56 56 51 48 43 41 40 37 38 34 29 13 5 2 6 10 4 1 1 1 1 2 4 2 3 3 1 2 3 1 2 1 2 2 2 3 4 3 3 6 7 7 7 5 4 2 4 6 7 9 11 14 15 17
56 54 50 49 44 42 42 41 40 34 17 15 13 10 6 1 2 1 2 2 4 4 3 5 3 2 2 0 2 2 2 1 3 2 3 4 2 2 5 7 6 6 6 4 6 5 5 7 9 11 13 15 17 19
55 48 47 45 44 45 40 46 45 27 27 16 3 4 4 2 3 6 7 4 4 5 5 4 3 3 2 1 3 2 3 3 0 2 4 4 2 4 6 6 5 4 0 4 7 9 11 12 16 13 14 18 19 20
48 46 46 45 45 42 45 51 40 33 9 3 5 5 4 4 5 5 3 3 2 4 6 5 4 2 2 2 2 3 2 1 2 4 5 1 5 7 5 2 1 3 5 8 11 14 14 16 17 21 22 22 20 23
49 45 46 41 43 49 53 52 39 24 4 4 4 6 5 1 1 2 2 3 1 4 4 4 3 1 2 3 2 3 3 4 5 4 2 3 6 3 2 3 5 6 7 9 13 13 16 19 18 20 21 24 24 26
41 36 26 43 50 52 49 39 25 5 4 3 3 4 2 3 2 2 2 3 3 4 2 2 3 3 2 3 4 6 4 5 2 2 2 4 2 4 5 5 8 11 13 15 15 17 17 18 19 22 23 24 24 23
30 9 34 50 53 46 38 17 5 3 4 3 2 1 2 3 3 3 3 3 6 3 2 2 4 3 3 2 3 4 4 1 1 1 3 5 5 5 5 9 12 14 14 16 16 17 20 22 22 20 16 26 24 24
36 34 34 42 42 33 10 5 4 3 3 2 3 3 2 2 4 3 2 4 3 2 2 2 3 3 4 5 3 2 2 3 4 5 5 6 8 11 13 14 17 15 15 17 21 23 21 20 18 16 19 24 23 24
28 31 29 23 16 8 3 3 4 3 2 2 2 2 2 3 2 4 4 5 3 3 5 2 2 2 3 3 4 4 3 3 4 8 7 8 11 14 18 18 20 19 19 22 21 21 23 24 21 22 24 22 18 23
26 23 20 16 9 5 4 3 3 3 2 2 2 2 2 2 2 2 4 2 2 2 1 3 5 4 4 4 5 6 4 3 4 7 9 8 15 16 17 18 18 22 22 24 22 22 21 20 21 21 21 20 18 21
20 17 14 10 7 9 3 2 3 2 3 2 2 2 2 1 2 2 2 3 2 3 3 4 4 6 13 13 11 8 7 8 7 8 10 10 18 18 19 20 21 20 17 17 15 19 20 19 25 25 23 24 24 24
12 12 8 7 6 5 4 3 3 3 2 2 2 1 2 2 2 2 3 2 3 4 4 4 4 7 8 7 10 14 18 17 17 16 21 23 11 9 12 17 17 13 17 20 21 19 23 24 26 27 25 27 25 25
12 7 4 4 4 4 1 1 3 2 3 2 1 2 1 1 0 1 2 3 4 5 7 8 11 12 11 16 14 20 23 20 14 16 19 20 20 21 22 24 24 19 13 24 26 26 25 27 28 26 24 26 25 25
8 3 3 2 3 3 2 2 2 3 2 2 3 3 3 2 2 1 3 3 3 2 4 9 10 5 6 8 6 12 22 15 15 19 24 20 10 19 24 25 28 29 30 27 25 27 26 27 27 24 25 25 25 22
4 3 4 2 1 4 3 4 3 2 3 3 3 3 3 2 3 4 4 3 3 4 7 6 5 6 8 10 7 16 28 20 14 10 29 28 22 22 23 26 28 34 27 21 24 24 27 26 25 25 26 24 24 22
5 6 9 7 3 5 5 5 6 5 4 5 5 1 1 3 3 6 4 4 4 5 7 7 7 7 8 12 10 11 24 24 19 14 31 31 24 17 13 14 14 28 21 25 26 25 27 28 26 27 27 27 28 26
6 6 2 1 3 4 3 2 2 3 5 7 4 6 3 4 7 5 3 3 4 14 23 25 19 13 12 19 25 25 27 26 23 27 35 34 29 25 26 22 20 35 36 30 30 29 27 27 27 27 25 26 24 22
3 3 7 4 3 1 5 3 6 8 5 4 6 6 10 9 7 4 6 14 20 21 25 26 30 29 28 29 30 28 30 30 29 28 31 33 29 29 34 34 36 40 37 35 35 31 28 30 29 28 26 27 26 22
2 4 5 4 3 3 5 6 6 4 4 5 6 5 5 5 3 4 18 23 24 15 15 22 31 28 27 30 29 30 30 25 13 14 18 13 11 19 24 27 30 30 31 31 33 28 28 29 28 27 29 28 26 22
5 4 3 4 6 6 5 7 3 3 4 4 2 3 2 4 19 24 25 24 16 19 30 27 28 20 18 16 18 24 24 24 24 19 11 13 13 25 25 26 28 28 27 25 26 28 27 25 24 23 23 23 20 20
3 2 3 3 5 4 3 1 1 1 0 3 2 4 9 5 15 27 26 29 30 30 22 20 20 21 20 19 15 11 11 22 26 27 30 32 31 30 29 29 30 31 29 26 25 24 23 22 20 19 18 19 21 21
1 4 4 4 4 3 2 2 2 3 2 1 7 2 3 1 4 4 27 23 22 11 22 22 16 20 28 28 28 29 31 29 25 27 27 27 28 27 29 30 29 29 28 27 25 23 22 22 20 19 18 20 23 22
2 2 3 2 3 4 2 3 3 4 2 2 4 5 5 5 8 4 10 17 21 24 24 28 28 28 30 32 32 33 33 32 30 26 23 22 22 24 26 27 27 24 24 25 24 23 22 22 22 22 23 22 22 22

GFSWCAN_925_spd_129.txt.gz
Wind_Speed
30 29 26 22 19 23 19 16 15 14 13 12 9 7 6 7 9 4 3 4 2 2 2 1 1 2 2 2 2 5 4 3 4 4 2 2 3 3 2 2 5 8 7 4 4 5 5 8 5 3 4 2 4 7
30 30 30 27 23 21 23 20 17 15 15 11 11 8 7 6 7 5 3 4 1 2 2 1 1 1 2 3 1 3 3 1 1 3 1 1 3 2 3 2 3 4 3 1 6 0 5 6 7 6 4 3 3 6
31 31 31 30 28 23 26 23 20 17 16 12 11 10 8 6 6 5 3 3 1 2 2 3 2 1 1 1 1 2 2 1 1 2 2 2 5 1 3 4 3 5 3 3 1 4 5 5 3 4 3 2 4 5
18 34 32 30 30 28 26 25 21 20 15 14 12 10 9 6 5 6 3 3 2 3 2 3 2 2 0 1 0 1 2 2 2 1 1 2 3 1 1 3 3 3 7 6 4 5 3 4 7 2 3 2 2 4
19 24 34 33 32 32 29 27 23 21 17 14 13 12 10 7 5 5 4 2 0 3 3 1 2 1 3 1 3 3 4 2 2 1 2 2 0 2 0 1 5 7 6 5 2 7 2 8 6 4 2 2 3 4
21 24 32 38 35 34 32 29 26 23 20 15 14 13 12 8 5 3 2 4 1 2 2 2 2 1 3 4 5 5 5 3 2 2 2 1 2 2 3 3 4 6 2 1 3 5 5 7 8 4 1 4 4 5
23 24 29 42 38 37 35 31 29 24 22 18 16 14 12 9 5 3 2 1 2 3 1 1 2 2 1 1 2 2 1 1 2 2 3 1 2 2 3 4 1 5 6 6 4 7 5 4 4 3 3 4 6 7
26 26 27 36 44 39 37 34 31 26 24 19 16 13 11 8 4 5 6 4 2 0 1 1 0 2 1 2 2 0 2 2 2 1 1 3 3 2 5 8 2 4 5 4 4 3 7 6 3 2 1 3 4 4
28 28 27 34 49 42 40 37 32 29 27 22 19 14 8 4 4 2 3 1 2 1 2 2 3 2 2 2 1 2 1 3 1 2 2 2 3 6 7 6 10 7 7 9 7 6 5 4 3 4 6 8 8 9
32 31 29 35 48 47 44 40 34 30 32 30 21 5 3 4 6 7 2 2 1 1 1 3 1 3 3 3 2 3 1 1 2 2 2 3 4 8 4 3 4 7 7 9 7 4 2 2 4 6 7 7 8 9
35 35 34 36 48 52 47 43 37 34 36 12 6 2 8 13 4 1 2 3 2 3 4 2 4 3 2 3 3 2 2 1 2 2 2 3 4 2 3 9 6 8 9 7 8 6 4 1 3 6 8 10 11 13
38 38 38 38 50 54 51 46 41 40 19 14 17 13 7 3 2 3 4 3 5 4 4 4 3 0 2 1 2 3 3 1 3 2 2 3 1 1 5 10 10 9 8 6 4 1 2 4 7 9 12 14 15 17
43 45 44 41 55 56 53 48 51 33 32 16 6 4 5 3 5 7 9 4 4 5 4 3 3 3 2 2 2 2 5 3 1 2 4 4 2 5 8 8 7 6 5 2 1 4 7 10 12 13 15 19 20 20
58 56 47 48 58 57 53 54 50 46 13 3 5 8 6 5 7 5 4 4 3 5 7 4 3 1 1 3 2 4 2 2 2 3 4 0 6 7 6 4 4 3 1 4 7 11 11 12 14 20 22 23 21 21
46 46 45 56 60 58 57 60 55 35 6 4 5 7 8 3 4 4 4 5 3 6 6 4 3 2 2 2 2 3 4 4 4 3 1 2 7 5 3 1 1 4 5 6 10 11 13 17 16 18 24 22 23 24
34 34 51 57 59 59 65 54 26 6 3 3 3 5 4 5 5 5 5 5 5 5 3 1 3 3 3 2 5 5 4 5 2 2 2 5 4 2 3 3 5 9 11 12 13 14 16 17 19 22 23 23 25 23
44 6 45 57 59 65 58 23 5 3 4 5 3 2 3 4 6 6 5 5 9 5 4 3 6 4 3 3 4 4 4 1 1 2 3 3 2 4 4 7 10 12 14 15 17 18 20 22 21 18 17 25 25 25
9 39 58 62 63 44 11 5 4 3 3 2 4 6 3 3 8 5 4 6 4 2 4 3 4 4 4 5 3 3 3 2 1 1 2 2 4 8 12 13 15 15 15 17 19 20 19 17 16 17 23 25 22 24
37 52 64 63 45 14 4 3 3 4 3 3 3 4 3 4 4 6 5 5 4 3 5 3 3 3 3 3 3 2 1 2 3 2 3 7 12 16 17 16 17 16 17 19 20 19 21 23 24 26 25 22 20 23
35 35 31 26 20 5 4 3 3 4 3 2 3 3 3 3 2 4 5 3 3 2 2 3 4 3 3 3 3 2 3 3 3 5 6 6 11 14 13 14 14 19 20 20 21 23 23 22 23 24 24 23 21 22
29 23 21 20 8 12 4 3 3 3 3 3 2 2 3 2 3 2 2 2 1 2 3 4 4 4 4 3 3 6 5 6 6 6 8 8 14 15 15 18 20 18 17 17 17 20 24 21 26 26 24 25 24 23
10 16 11 13 7 5 4 6 3 3 3 3 3 2 3 3 3 3 3 2 3 3 4 3 2 4 4 4 7 11 11 11 14 14 17 18 9 8 10 16 16 12 18 23 24 19 23 26 28 27 24 25 26 27
6 7 7 6 5 4 3 3 3 3 4 3 1 3 2 2 2 2 2 3 4 3 5 6 6 9 7 8 9 13 16 14 11 13 16 18 18 19 20 21 22 19 14 22 23 24 25 30 29 27 27 28 26 26
6 5 4 4 4 4 1 3 2 3 3 2 2 3 2 2 3 2 2 3 3 1 4 8 8 4 4 6 6 10 19 13 14 15 20 16 10 18 21 23 26 27 24 23 25 28 28 28 28 27 26 26 26 24
4 4 3 6 3 4 3 3 3 3 3 3 3 2 2 1 2 4 3 4 3 5 8 5 5 6 7 8 6 13 22 13 11 8 25 23 19 18 21 26 27 27 23 23 25 27 28 26 25 25 26 25 25 25
3 3 3 2 2 3 3 4 4 3 3 3 2 2 1 2 2 5 4 3 4 4 5 6 7 6 7 10 9 9 20 20 17 13 28 27 20 15 11 12 13 24 22 23 25 25 28 27 27 28 27 28 29 29
1 3 2 3 3 4 4 3 3 3 3 5 4 5 3 4 6 5 2 3 3 9 17 18 15 9 8 14 21 22 26 24 22 27 32 31 25 21 22 19 15 33 30 26 25 27 28 28 28 28 26 26 26 25
1 3 6 5 3 1 4 3 5 7 4 4 6 6 8 9 6 3 5 6 17 15 17 20 21 26 22 23 26 28 28 27 28 29 29 30 25 28 29 31 33 34 34 33 31 29 28 28 27 27 26 26 26 24
2 4 5 3 2 3 4 5 5 4 5 6 6 5 5 4 3 3 9 12 12 10 9 11 23 22 24 28 27 24 25 20 13 15 17 12 11 17 21 24 27 28 29 29 31 29 31 31 28 27 27 26 26 25
4 4 3 4 6 6 5 6 3 3 4 4 2 2 2 4 12 18 20 17 8 9 19 22 24 19 17 15 16 19 20 22 24 19 10 12 14 23 17 18 21 22 23 23 27 33 34 29 28 26 23 20 18 18
2 3 3 3 4 2 1 1 1 2 2 3 3 4 9 4 12 23 26 26 21 23 19 18 19 17 15 15 13 8 10 21 22 26 31 32 30 29 27 26 25 23 22 23 24 25 26 25 22 21 19 19 20 20
3 4 3 4 3 1 1 1 1 3 2 3 3 3 1 1 4 3 17 13 19 13 21 19 14 18 26 25 26 25 27 28 28 29 30 31 31 31 30 30 27 23 20 22 22 21 21 23 22 20 19 19 18 19
2 2 1 1 2 2 0 1 1 3 1 2 4 3 4 4 7 4 12 17 22 22 22 26 26 24 23 23 24 26 27 28 28 27 27 27 27 28 27 24 22 22 23 23 21 21 23 22 23 21 19 17 19 20

GFSWCAN_925_spd_132.txt.gz
Wind_Speed
29 28 26 24 20 17 17 19 15 14 11 10 10 7 6 8 10 9 4 6 3 3 2 4 4 1 1 2 1 3 3 1 1 1 1 1 1 3 1 3 5 6 6 4 3 4 7 6 4 5 5 4 5 4
28 28 28 26 23 21 18 18 19 15 14 11 9 7 5 5 7 8 2 8 4 2 1 1 0 0 2 2 1 1 1 2 1 2 0 1 1 2 2 2 4 3 3 3 7 4 2 4 6 6 5 4 3 2
8 12 29 28 27 25 23 20 19 18 15 12 10 7 5 4 5 6 2 7 3 2 2 2 1 0 1 1 1 2 1 2 2 1 1 1 2 2 2 4 4 4 2 2 3 3 7 6 6 5 3 4 3 2
15 13 12 29 28 28 26 24 21 20 17 14 10 7 6 5 4 5 1 4 2 4 2 1 3 3 2 2 1 2 2 1 2 0 1 1 2 2 2 2 2 3 4 4 3 4 5 4 6 6 5 4 4 3
14 16 15 13 29 27 27 25 22 21 18 16 11 8 8 5 4 3 2 1 2 1 2 1 2 1 3 1 2 1 2 1 1 0 0 3 1 1 1 1 4 6 6 5 5 4 4 5 7 5 5 4 3 3
15 16 17 18 15 30 26 26 25 21 20 18 13 11 10 7 3 2 2 0 1 2 1 2 1 2 4 3 2 2 1 1 0 1 2 0 2 0 2 4 4 5 4 3 4 6 7 9 7 4 6 4 3 2
15 17 18 18 20 18 31 27 27 23 22 20 15 14 12 8 5 2 0 1 1 1 1 2 0 2 2 1 2 0 1 0 0 2 1 1 2 1 2 3 2 6 6 5 7 8 5 5 5 6 6 5 2 2
18 18 18 20 20 22 23 33 29 26 23 23 18 15 12 9 4 4 7 6 3 2 1 1 2 1 2 1 1 2 1 0 1 1 0 2 1 1 4 6 3 5 7 7 5 5 5 8 8 5 4 3 0 0
20 20 20 20 21 20 24 33 30 29 25 23 22 17 11 4 4 4 4 4 5 2 2 2 3 2 2 1 2 1 1 1 1 2 2 2 3 6 6 5 6 5 6 8 7 6 7 8 7 5 3 4 4 5
23 23 23 21 22 22 23 25 34 30 25 27 21 7 3 5 7 10 2 2 0 1 1 3 2 2 3 2 1 2 0 1 1 2 2 2 4 6 4 1 3 7 8 9 8 5 5 4 3 2 2 2 3 5
26 26 26 25 25 25 23 23 37 32 33 14 4 2 8 15 3 1 2 3 3 3 4 2 3 3 2 3 3 2 2 1 2 2 3 2 3 0 4 5 6 8 8 6 8 7 6 5 1 2 4 5 8 11
30 30 29 29 27 26 24 27 40 40 17 18 15 10 8 3 2 4 4 2 5 6 4 5 3 2 2 1 2 1 2 0 4 2 2 3 3 1 1 6 6 8 10 8 9 6 3 2 3 5 8 11 14 17
31 32 33 31 27 26 26 32 43 36 34 20 5 4 4 3 6 8 10 4 4 5 5 4 4 4 2 0 3 2 3 3 2 2 3 4 2 4 6 6 7 9 10 7 4 2 4 7 10 11 14 20 20 21
32 34 36 34 29 28 32 33 39 46 14 3 6 7 7 5 7 5 5 5 3 7 9 5 3 3 2 2 3 3 2 1 3 4 5 2 5 6 5 5 6 5 4 1 3 7 9 12 16 18 21 23 23 21
34 38 40 44 44 36 37 35 52 46 7 5 5 8 8 3 2 2 4 4 2 8 6 4 3 2 2 3 2 3 3 4 4 4 2 2 6 6 5 4 4 2 2 4 8 9 15 19 19 20 24 25 26 27
41 42 48 49 48 42 41 34 38 17 6 5 4 5 3 5 4 3 5 7 4 7 3 2 3 4 3 3 4 5 4 5 3 2 2 4 6 4 3 3 5 6 8 11 14 15 16 17 18 19 23 25 30 28
38 46 49 47 44 44 42 28 7 3 5 7 3 1 4 5 7 7 7 6 10 5 3 3 6 4 3 3 4 4 4 2 3 2 2 6 5 4 5 6 9 11 11 13 15 17 19 22 23 23 18 27 28 28
32 30 32 37 49 48 22 5 4 4 4 3 5 6 2 3 10 8 4 9 5 3 3 3 4 3 4 5 3 3 3 2 1 4 5 4 4 7 8 8 12 12 13 17 20 22 24 23 18 19 23 28 26 28
19 23 35 57 54 18 3 2 2 3 3 3 5 5 3 4 4 7 8 4 5 5 6 2 3 3 3 3 3 2 2 3 4 4 3 8 12 13 16 18 18 18 19 21 21 18 21 23 22 24 26 25 20 26
39 32 54 51 41 5 4 3 2 3 3 3 3 4 4 3 3 7 6 3 3 4 2 3 4 3 4 4 3 3 4 4 4 2 4 5 15 15 17 17 17 21 21 21 24 25 20 19 23 26 26 24 21 23
23 24 21 20 8 10 3 3 2 2 4 3 4 2 3 2 4 3 2 1 2 2 3 3 3 2 5 4 9 7 7 8 5 5 5 4 8 10 14 16 19 20 16 16 15 17 19 19 26 25 24 27 26 27
12 16 9 13 6 4 4 6 3 2 3 3 3 2 4 3 2 2 2 2 3 3 3 3 3 4 4 4 5 13 14 13 13 12 12 13 4 2 8 18 16 12 17 19 17 17 23 27 26 26 25 26 28 29
8 9 7 8 5 4 3 2 4 4 4 3 2 3 3 2 2 3 2 1 3 3 4 4 4 6 5 6 6 8 11 11 6 11 14 14 16 20 21 21 22 17 14 20 22 25 24 28 26 26 27 27 26 27
6 4 4 4 5 4 2 3 3 3 3 3 3 4 3 2 0 1 2 3 3 2 4 5 5 2 1 3 3 5 14 16 17 18 22 16 7 15 19 22 22 23 25 25 25 25 24 26 26 24 24 26 26 25
5 5 4 5 2 3 3 2 2 3 4 2 4 3 2 1 2 1 3 3 2 3 3 4 4 5 5 3 3 12 9 13 12 7 22 22 20 17 18 22 23 26 24 25 23 21 22 23 21 22 24 25 25 25
7 8 5 4 3 4 3 3 4 3 3 3 4 2 1 2 3 4 3 3 3 3 4 6 5 3 3 7 6 5 14 17 21 12 23 25 23 16 10 9 10 24 23 22 25 23 23 22 22 25 26 28 29 30
4 4 3 2 3 4 4 3 3 3 3 4 3 3 3 3 5 4 2 2 3 6 9 14 16 8 6 11 20 24 25 23 19 19 26 31 28 24 23 16 14 36 31 24 22 24 26 25 25 26 27 29 27 25
2 2 4 0 3 2 4 2 3 4 3 3 4 3 8 8 5 3 4 3 11 9 6 7 7 12 19 25 27 26 27 25 25 25 26 32 31 27 29 32 36 39 37 35 33 31 28 26 26 28 30 29 29 26
3 1 3 4 3 2 3 4 4 3 4 4 5 4 4 4 3 2 4 5 6 6 6 11 22 22 23 25 24 25 26 24 10 9 11 9 8 16 21 20 23 28 31 31 28 26 25 25 26 26 30 29 24 22
2 2 3 2 4 3 3 4 2 2 2 3 2 2 3 3 6 10 13 12 10 12 20 24 28 17 14 12 14 21 21 20 23 17 8 9 12 25 23 25 26 27 28 29 30 29 25 23 23 23 23 23 21 21
2 2 3 2 2 2 1 2 2 2 1 1 1 2 3 3 8 16 18 22 25 26 21 16 17 19 17 15 11 7 9 22 16 17 22 26 30 32 34 32 32 30 29 28 26 23 22 22 21 21 21 23 22 22
1 1 3 1 3 3 3 2 1 1 1 1 3 1 3 3 3 3 11 11 16 11 20 18 14 18 24 22 22 22 21 20 20 20 21 24 28 30 33 34 34 30 25 25 24 21 19 20 22 20 21 24 24 20
3 2 2 0 2 2 2 3 4 4 3 2 3 3 4 4 6 4 7 10 15 18 22 23 23 21 19 16 15 17 15 15 13 18 23 25 25 26 29 27 26 28 28 23 19 21 22 21 20 22 24 24 22 18

GFSWCAN_925_spd_135.txt.gz
Wind_Speed
27 27 25 24 21 18 15 14 15 11 10 6 8 10 7 7 8 6 2 7 2 2 2 3 3 1 2 2 4 3 3 2 2 1 2 3 2 4 2 5 6 6 5 4 2 2 6 4 4 5 3 3 5 4
14 19 26 25 23 21 19 15 14 16 12 9 6 6 6 5 6 5 1 4 3 3 2 2 2 2 2 1 2 1 3 3 4 2 1 2 0 1 3 2 2 3 6 5 8 5 3 4 3 2 4 4 3 5
11 7 0 20 24 23 21 19 15 14 15 11 8 5 5 5 4 4 2 4 1 2 2 2 1 1 1 2 1 3 2 1 1 1 3 2 2 3 3 5 2 3 4 3 1 4 6 7 4 4 3 4 5 5
11 11 10 4 15 24 24 21 20 17 15 13 11 6 6 5 4 4 2 2 1 1 2 2 2 1 2 0 1 1 1 1 3 2 1 1 2 2 3 2 3 4 4 5 4 1 5 4 5 7 6 6 5 5
11 11 13 11 6 12 24 24 23 20 16 15 13 9 9 6 3 3 3 2 1 1 2 1 2 1 2 1 2 2 1 2 2 2 2 2 2 0 1 1 4 5 6 5 5 5 3 4 8 7 7 5 6 5
12 12 11 11 12 10 11 24 24 22 17 17 15 12 11 9 5 2 2 2 2 2 2 1 1 2 4 3 4 5 3 2 2 2 2 2 1 1 1 3 6 6 3 5 4 2 2 7 7 5 6 6 5 5
12 12 12 12 12 12 13 8 22 22 20 18 16 14 13 11 8 3 2 2 4 1 2 2 2 1 1 2 3 2 2 1 2 1 1 1 1 1 2 4 5 3 5 5 5 7 5 3 5 6 8 7 6 4
15 13 12 12 12 12 12 13 9 22 23 19 19 19 15 13 6 5 8 7 4 2 2 2 2 1 1 1 1 1 1 1 1 2 1 1 2 1 4 5 3 3 6 5 3 3 4 7 8 5 7 5 4 3
17 15 14 13 14 14 12 12 14 17 23 20 16 21 17 7 6 3 4 5 6 1 3 3 4 3 2 1 1 1 1 1 0 2 2 3 2 5 6 4 4 6 6 6 5 7 7 7 7 6 5 4 3 2
18 18 16 14 15 15 13 12 12 11 26 22 22 6 2 6 8 12 2 1 3 1 2 3 1 3 3 3 3 3 0 2 2 3 2 3 4 4 6 5 4 7 8 9 7 5 5 5 5 4 3 3 3 3
21 20 18 17 16 16 16 14 13 10 35 15 4 2 7 15 4 2 2 2 3 3 4 3 5 4 2 3 3 2 2 2 1 2 3 3 3 3 3 2 2 6 8 5 7 7 6 6 4 2 2 4 6 10
23 20 19 19 18 17 16 15 11 12 9 18 16 12 8 2 2 4 4 2 5 6 4 4 2 3 1 1 3 1 3 1 3 3 2 3 3 2 3 5 5 7 10 8 12 8 7 4 1 3 6 9 12 15
24 22 21 21 20 18 18 17 14 13 25 17 5 5 4 3 5 8 9 4 3 5 6 4 3 3 1 1 3 2 4 3 3 2 4 4 2 1 5 6 6 9 12 10 7 5 2 3 6 8 11 16 17 19
20 22 23 24 22 20 18 14 10 25 11 3 6 7 7 5 7 6 6 6 4 6 11 6 3 3 2 3 3 3 2 2 3 4 5 3 6 6 5 5 6 6 6 5 2 2 6 9 12 13 15 18 21 20
20 23 26 29 28 25 22 20 16 16 6 4 4 7 8 3 2 2 3 4 1 9 9 5 3 3 2 3 2 3 1 4 5 5 3 3 6 7 7 6 6 5 2 3 4 6 10 13 14 16 19 21 25 26
23 23 28 27 28 26 24 23 20 12 3 3 4 4 2 4 3 2 2 6 3 9 3 3 4 3 3 4 4 7 5 6 4 3 3 6 7 6 6 6 6 7 6 7 9 10 12 14 16 19 22 25 27 25
23 17 19 20 28 30 25 16 12 6 5 4 4 3 4 2 9 4 4 8 12 9 4 4 6 7 4 4 4 5 6 3 4 3 3 6 8 7 6 6 7 8 8 9 10 12 15 19 19 19 13 26 26 28
28 31 28 27 24 21 22 19 7 6 7 4 4 4 3 2 8 5 4 9 7 3 4 5 5 4 6 7 4 4 3 2 2 4 6 5 6 9 10 8 8 8 9 12 14 17 20 20 15 16 22 28 25 27
33 32 34 35 30 16 5 6 6 6 3 2 2 2 3 3 2 6 7 10 3 5 6 2 4 4 4 4 3 3 3 3 4 4 4 10 11 10 8 9 12 13 14 17 20 18 19 21 23 24 23 21 19 24
31 34 40 29 47 7 5 2 6 5 4 2 1 3 4 3 5 7 11 5 4 4 2 3 4 4 4 3 3 4 5 5 5 4 3 4 10 11 13 15 16 18 18 21 23 20 19 21 26 27 25 22 18 20
11 21 15 37 8 7 4 3 2 3 3 2 4 2 3 4 6 6 6 2 2 3 3 3 3 2 2 4 9 10 8 9 5 5 5 4 7 11 12 15 17 18 15 15 13 13 17 18 25 22 22 25 23 25
7 14 7 9 4 4 4 3 3 3 3 3 1 2 3 3 2 2 2 2 4 3 3 3 3 4 4 5 5 14 15 18 12 10 7 6 2 2 6 17 15 10 15 18 17 15 19 24 24 26 24 25 25 27
6 5 6 7 5 4 4 2 3 1 4 3 2 3 2 2 1 2 1 1 2 2 3 2 4 6 5 8 8 9 13 15 7 11 13 14 15 16 18 21 22 16 12 20 20 24 24 26 22 22 24 24 24 25
5 4 4 3 3 4 3 2 2 3 3 3 2 4 3 2 1 2 2 2 1 2 3 6 4 3 2 3 3 4 15 18 15 15 16 12 6 13 19 22 23 26 29 25 24 28 27 25 24 21 21 23 23 21
4 5 3 4 2 3 3 2 2 2 3 2 4 2 2 0 2 1 1 2 2 3 4 4 4 4 4 2 2 6 10 16 11 7 19 16 19 16 18 23 24 29 27 22 23 23 25 26 26 24 25 22 21 23
5 4 3 2 2 2 2 3 3 3 2 4 3 2 1 2 2 3 3 3 3 4 5 6 6 3 3 6 3 3 9 15 19 7 20 19 20 15 6 5 6 22 23 18 22 21 24 25 24 23 23 24 25 26
5 5 3 2 2 3 4 4 3 2 3 4 4 4 3 2 4 3 2 2 2 5 10 15 16 8 3 6 9 10 11 11 13 15 19 20 20 19 17 13 11 27 30 26 24 25 27 27 25 24 22 23 25 23
2 3 3 3 3 2 4 2 1 2 2 2 4 3 7 7 4 3 3 2 5 7 8 7 6 7 9 11 13 15 14 14 14 16 19 23 28 25 19 19 21 22 23 26 27 29 29 29 27 26 24 23 25 25
3 2 2 4 4 4 2 2 2 1 2 3 4 3 3 3 2 1 3 6 6 4 4 9 15 17 19 18 18 18 19 17 6 5 8 5 3 14 12 13 17 20 23 27 30 29 30 30 30 27 26 24 20 25
2 2 3 2 3 2 2 2 2 2 1 2 1 1 2 2 4 5 6 7 8 11 18 20 18 12 10 8 13 20 16 12 16 15 5 6 8 17 20 24 26 26 27 28 30 32 31 28 26 24 23 21 20 21
1 1 3 3 0 2 2 3 2 2 3 2 2 3 3 3 5 8 15 17 21 20 17 14 18 18 16 15 10 3 7 9 6 8 13 18 19 21 24 27 29 29 29 29 28 25 24 23 20 17 15 18 21 22
3 3 2 2 2 3 3 2 2 2 4 3 2 2 3 3 2 3 6 15 14 9 17 15 14 15 12 10 11 12 13 15 15 14 14 14 18 23 26 28 28 28 27 26 24 23 23 21 19 18 19 20 21 21
2 2 2 2 4 5 3 3 4 4 3 2 2 1 2 3 5 3 4 9 13 10 10 8 9 10 8 7 7 6 6 7 6 8 14 19 21 23 23 25 26 25 23 22 21 21 20 20 22 22 22 21 21 22

GFSWCAN_925_spd_138.txt.gz
Wind_Speed
12 8 33 27 24 21 19 16 17 16 12 10 6 6 7 3 5 5 3 7 3 1 3 2 3 2 1 2 4 3 3 2 2 2 3 3 3 4 2 4 6 6 6 4 2 3 6 6 3 6 4 2 4 4
12 14 8 28 25 23 20 18 15 17 14 11 8 5 7 3 3 4 2 3 4 3 1 2 2 1 1 2 4 1 2 3 4 3 1 2 2 1 3 2 2 3 6 4 8 5 3 5 1 2 4 5 5 6
13 11 7 8 24 24 23 21 19 16 17 14 10 7 5 5 1 2 1 2 1 2 2 2 1 1 0 0 1 4 2 2 1 2 3 2 2 3 3 5 2 4 4 3 1 1 5 5 1 3 4 4 4 4
11 12 10 8 5 14 26 24 22 19 16 15 13 9 7 4 3 2 0 0 3 3 1 2 0 1 3 2 2 0 3 3 5 2 2 1 2 2 3 2 3 4 5 4 5 5 1 4 5 6 5 6 5 5
9 11 10 9 10 4 7 27 23 21 18 15 15 12 9 6 4 3 2 2 2 3 2 2 1 2 4 2 1 2 2 2 2 2 2 3 1 1 1 2 4 5 6 5 5 5 3 4 7 6 7 5 6 5
8 10 10 9 10 9 6 5 24 25 21 18 16 14 12 11 7 1 2 3 4 4 3 1 2 4 5 2 4 3 2 2 2 3 2 2 1 3 2 3 6 5 3 4 2 2 2 3 7 5 6 7 5 6
9 10 10 10 9 8 9 7 2 20 23 21 18 17 16 14 11 3 3 3 7 4 2 2 2 2 1 3 3 2 3 1 2 1 2 1 1 2 2 4 4 5 5 3 5 6 4 3 5 7 8 8 9 7
10 9 12 11 10 9 8 9 9 4 20 23 20 18 17 16 9 5 9 6 5 4 3 2 2 2 3 1 1 2 1 2 2 0 1 2 1 1 4 6 5 2 4 4 2 3 1 6 7 6 9 8 5 5
12 12 12 12 11 11 10 9 9 12 6 23 19 18 14 6 6 4 7 8 7 2 3 2 4 3 2 1 2 1 2 1 1 2 2 2 2 5 6 5 3 7 6 6 3 5 6 6 7 6 6 6 5 2
13 14 12 13 12 10 10 9 7 11 9 20 19 6 3 7 10 16 3 2 3 2 1 3 2 3 4 2 1 2 1 2 1 3 2 2 4 6 5 4 4 2 5 8 5 4 5 4 6 5 4 3 3 2
15 16 16 14 13 12 11 10 7 5 9 7 4 2 8 19 4 1 2 2 3 3 4 3 4 4 2 3 3 2 2 1 0 3 3 2 4 3 3 1 3 4 7 4 4 6 6 7 6 5 3 3 4 6
17 16 17 16 14 13 11 9 6 1 4 3 12 11 8 2 1 4 4 2 4 6 4 5 3 3 2 2 3 1 3 1 5 3 2 3 4 3 2 2 4 5 9 7 11 9 11 10 8 5 3 4 6 9
20 19 18 19 15 13 11 9 8 6 9 6 3 4 4 3 5 8 10 4 4 5 5 4 4 4 2 1 3 3 4 3 2 2 4 5 2 2 5 5 5 8 12 11 7 8 7 5 4 3 5 8 10 13
20 21 21 19 15 13 12 9 7 8 8 3 4 6 6 5 6 6 5 6 4 4 10 5 4 3 2 3 3 4 3 3 3 4 6 3 6 6 6 5 6 6 7 6 6 6 4 3 5 6 9 12 13 15
20 22 19 17 16 14 12 11 10 7 4 3 3 5 8 4 1 1 3 4 1 8 8 4 3 3 2 3 3 3 4 5 5 5 3 4 7 9 8 6 7 7 6 4 3 2 5 6 8 12 13 14 16 18
21 21 21 17 14 13 12 11 10 4 2 2 5 4 1 2 2 2 1 3 4 9 3 2 4 3 3 4 5 8 7 7 5 4 3 6 9 9 8 7 7 10 8 6 5 6 7 8 9 11 16 19 20 19
21 12 14 13 11 12 13 9 8 5 4 5 5 3 3 2 2 3 4 4 10 9 4 4 6 8 4 3 4 5 6 4 4 3 3 8 12 11 8 7 9 8 7 7 7 8 11 11 11 14 12 23 21 24
21 13 14 13 12 7 5 12 5 5 8 6 4 5 3 3 3 3 3 8 6 3 4 6 5 4 7 8 4 4 4 1 1 5 7 6 7 11 14 9 10 10 10 11 13 13 13 11 13 15 21 25 23 26
18 18 19 19 20 10 4 8 6 5 9 3 3 2 3 2 2 3 4 11 1 2 5 2 4 5 4 4 4 3 3 3 4 4 4 9 17 15 15 13 12 12 12 12 12 13 15 17 21 23 25 25 19 21
23 24 24 28 31 10 4 4 9 4 5 5 3 4 3 3 5 4 7 9 3 2 2 3 5 4 4 3 4 4 5 5 7 5 4 4 13 13 14 15 14 11 11 13 17 17 17 20 25 25 25 23 18 19
16 25 25 23 17 15 3 4 4 4 5 3 2 6 2 4 4 6 6 6 4 3 4 4 4 3 3 1 7 8 7 9 8 6 8 6 10 15 14 14 13 12 10 14 11 14 14 17 23 27 25 24 25 27
8 6 7 9 4 6 3 5 2 2 2 3 4 3 3 3 3 5 5 6 4 5 3 4 4 3 3 4 5 12 15 15 15 12 11 12 4 2 4 15 11 10 15 18 16 13 18 26 27 26 25 27 24 27
4 5 3 3 3 2 3 5 2 2 4 5 2 3 2 1 1 1 4 3 2 3 3 2 4 5 4 6 10 9 17 19 5 9 12 14 13 13 12 14 15 15 10 21 20 20 23 27 25 22 24 23 24 25
4 3 2 3 3 3 3 2 2 2 3 3 3 3 1 2 2 2 3 2 2 1 2 4 5 4 4 2 2 4 13 19 12 11 14 12 5 12 19 21 19 20 24 23 22 25 25 24 22 21 22 23 24 23
3 1 1 3 1 4 3 3 1 2 3 3 4 3 2 1 2 3 3 2 2 3 5 5 5 5 7 6 2 5 13 17 10 6 19 20 19 15 12 17 19 22 24 16 21 23 24 25 26 25 24 22 24 24
3 1 2 1 2 3 4 4 4 3 3 3 2 2 2 2 3 3 3 4 4 5 5 7 8 7 4 3 3 2 12 18 16 7 18 16 21 16 7 4 3 19 24 15 16 18 21 23 24 26 25 27 26 26
4 3 1 1 1 2 3 2 3 4 3 3 3 4 3 3 4 3 1 2 3 7 18 19 15 7 3 7 14 11 9 11 14 14 10 10 13 17 19 11 8 25 22 20 19 19 21 24 23 23 24 25 25 25
1 4 5 4 2 2 3 3 3 2 3 3 4 4 6 5 3 2 4 4 3 9 13 15 15 14 12 14 11 9 9 8 10 13 15 18 21 21 21 23 24 19 17 17 18 21 22 25 27 27 26 27 28 25
3 4 1 5 3 4 4 3 2 1 2 2 3 2 3 2 2 1 2 7 10 11 10 8 6 9 8 5 6 8 8 9 5 3 5 5 4 14 7 7 7 10 14 18 20 20 21 23 27 27 26 26 27 27
5 3 3 4 4 5 2 2 2 2 1 1 1 1 1 2 3 3 5 4 3 5 4 3 2 2 2 2 6 7 6 10 15 15 4 5 7 8 8 12 15 18 19 20 23 26 24 22 23 22 23 22 19 21
4 3 4 3 1 2 2 3 3 2 3 3 3 3 0 3 5 7 14 17 13 5 4 5 5 6 8 9 7 0 3 4 7 9 11 13 12 13 13 16 18 21 22 22 22 23 24 22 20 20 19 21 23 18
4 3 1 3 3 4 4 4 3 3 4 4 4 3 4 4 3 3 3 7 8 4 10 7 6 7 3 4 5 6 6 6 7 8 10 10 10 13 17 21 23 22 22 22 22 21 20 19 19 19 18 21 21 22
3 3 2 2 4 4 3 3 5 5 3 3 3 2 1 2 5 3 5 8 12 10 9 6 5 5 5 5 4 3 3 3 3 3 6 11 15 19 21 23 23 22 23 24 22 21 20 19 20 19 20 21 22 22